TimeEDT,TemperatureF,Dew PointF,Humidity,Sea Level PressureIn,VisibilityMPH,Wind Direction,Wind SpeedMPH,Gust SpeedMPH,PrecipitationIn,Events,Conditions,WindDirDegrees,DateUTC
12:54 AM,62.6,55.4,77,30.15,10.0,Variable,3.5,-,N/A,Rain,Light Rain,0,2012-09-26 04:54:00
1:54 AM,62.1,55.9,80,30.13,10.0,SSE,3.5,-,0.00,,Scattered Clouds,150,2012-09-26 05:54:00
2:54 AM,62.1,55.0,78,30.12,10.0,Calm,Calm,-,N/A,,Overcast,0,2012-09-26 06:54:00
3:54 AM,63.0,55.0,75,30.09,10.0,South,3.5,-,N/A,,Mostly Cloudy,170,2012-09-26 07:54:00
4:54 AM,64.0,55.9,75,30.09,10.0,Variable,4.6,-,N/A,,Mostly Cloudy,0,2012-09-26 08:54:00
5:54 AM,66.0,55.0,68,30.09,10.0,SW,9.2,-,N/A,,Mostly Cloudy,220,2012-09-26 09:54:00
6:54 AM,64.9,55.0,70,30.10,10.0,SSW,6.9,-,N/A,,Scattered Clouds,210,2012-09-26 10:54:00
7:54 AM,64.9,57.0,75,30.12,10.0,WSW,9.2,-,N/A,,Scattered Clouds,240,2012-09-26 11:54:00
8:54 AM,66.9,57.9,73,30.12,10.0,Variable,6.9,-,N/A,,Partly Cloudy,0,2012-09-26 12:54:00
9:54 AM,68.0,57.9,70,30.12,10.0,SW,8.1,-,N/A,,Clear,230,2012-09-26 13:54:00
10:54 AM,71.1,59.0,66,30.12,10.0,WSW,10.4,16.1,N/A,,Clear,250,2012-09-26 14:54:00
11:54 AM,73.9,59.0,59,30.10,10.0,SSW,12.7,-,N/A,,Partly Cloudy,210,2012-09-26 15:54:00
12:54 PM,75.0,60.1,60,30.09,10.0,SW,13.8,19.6,N/A,,Partly Cloudy,230,2012-09-26 16:54:00
1:54 PM,77.0,60.1,56,30.07,10.0,WSW,15.0,23.0,N/A,,Scattered Clouds,240,2012-09-26 17:54:00
2:54 PM,75.9,59.0,56,30.05,10.0,SW,15.0,-,N/A,,Partly Cloudy,230,2012-09-26 18:54:00
3:54 PM,77.0,60.1,56,30.05,10.0,WSW,10.4,19.6,N/A,,Clear,240,2012-09-26 19:54:00
4:54 PM,75.9,60.1,58,30.05,10.0,West,6.9,-,N/A,,Mostly Cloudy,270,2012-09-26 20:54:00
5:54 PM,73.0,63.0,71,30.07,10.0,SW,4.6,-,0.00,,Mostly Cloudy,220,2012-09-26 21:54:00
6:54 PM,72.0,63.0,73,30.07,10.0,SW,3.5,-,N/A,,Overcast,230,2012-09-26 22:54:00
7:54 PM,73.0,63.0,71,30.08,10.0,WSW,5.8,-,N/A,,Overcast,240,2012-09-26 23:54:00
8:54 PM,73.0,63.0,71,30.09,10.0,WSW,9.2,-,N/A,,Overcast,250,2012-09-27 00:54:00
9:54 PM,72.0,62.1,71,30.10,10.0,WSW,8.1,-,N/A,,Scattered Clouds,250,2012-09-27 01:54:00
10:54 PM,69.1,62.1,78,30.11,10.0,WSW,4.6,-,N/A,,Mostly Cloudy,250,2012-09-27 02:54:00
11:54 PM,69.8,64.4,83,30.12,3.0,WSW,10.4,-,N/A,Rain,Rain,240,2012-09-27 03:54:00